This demonstration page uses our WeatherBlox Daily Observations layout. Learn more.

Left ArrowRight Arrow

Hourly Observations for June 22, 2020

Temp ( °F °C ) Dew Point ( °F °C ) Humidity (%) Winds ( mph kmh ) Pressure ( in mb ) Visibility ( mi km ) Precip ( " mm )
12:56 am 00:56 Cloudy 73 22.9 65 18.2 75 75 SSW 8 13 29.77 1008 10 16 0.00 0.00
1:56 am 01:56 Clear 72 22.1 64 17.7 76 76 SSW 3 6 29.74 1007 10 16 0.00 0.00
2:56 am 02:56 Clear 71 21.8 64 17.6 77 77 W 7 11 29.75 1008 10 16 0.00 0.00
3:56 am 03:56 Clear 70 21.3 64 17.5 79 79 W 5 7 29.76 1008 10 16 0.00 0.00
4:56 am 04:56 Mostly Clear 69 20.7 64 17.5 82 82 WNW 7 11 29.75 1007 10 16 0.00 0.00
5:56 am 05:56 Cloudy 67 19.6 64 17.5 88 88 WNW 9 15 29.76 1008 10 16 0.00 0.00
6:56 am 06:56 Cloudy 69 20.3 66 18.8 91 91 NW 6 9 29.78 1008 10 16 0.00 0.00
7:11 am 07:11 Cloudy 70 21 66 19 88 88 NW 7 11 29.80 1009 10 16 0.00 0.00
7:41 am 07:41 Cloudy with Light Rain 70 21 66 19 88 88 NNW 8 13 29.81 1010 10 16 0.00 0.00
7:56 am 07:56 Cloudy with Drizzle 70 21.1 66 19 88 88 NNW 10 17 29.82 1010 10 16 0.00 0.00
8:26 am 08:26 Mostly Cloudy 70 21 66 19 88 88 NNW 15 24 29.81 1010 10 16 0.00 0.00
8:56 am 08:56 Partly Cloudy 71 21.5 66 18.7 84 84 N 10 17 29.82 1010 10 16 0.00 0.00
9:56 am 09:56 Partly Cloudy 74 23.2 66 18.7 76 76 N 8 13 29.83 1010 10 16 0.00 0.00
10:41 am 10:41 Mostly Cloudy 77 25 66 19 69 69 NNW 8 13 29.84 1011 10 16 0.00 0.00
10:56 am 10:56 Mostly Cloudy 76 24.2 67 19.2 74 74 N 10 17 29.86 1011 10 16 0.00 0.00
11:11 am 11:11 Mostly Cloudy 75 24 66 19 74 74 N 13 20 29.86 1011 10 16 0.00 0.00
11:56 am 11:56 Partly Cloudy 76 24.7 65 18.4 68 68 NNW 13 20 29.86 1011 10 16 0.00 0.00
12:56 pm 12:56 Partly Cloudy 80 26.5 64 17.5 58 58 N 13 20 29.87 1011 10 16 0.00 0.00
1:56 pm 13:56 Partly Cloudy 80 26.8 64 17.8 58 58 N 10 17 29.87 1011 10 16 0.00 0.00
2:56 pm 14:56 Partly Cloudy 82 27.5 63 17.3 54 54 N 7 11 29.86 1011 10 16 0.00 0.00
3:56 pm 15:56 Sunny 82 27.7 61 16 49 49 N 9 15 29.86 1011 10 16 0.00 0.00
4:56 pm 16:56 Sunny 80 26.8 59 15.2 49 49 N 8 13 29.86 1011 10 16 0.00 0.00
5:56 pm 17:56 Mostly Sunny 77 25 58 14.7 53 53 NNW 12 19 29.88 1012 10 16 0.00 0.00
6:07 pm 18:07 Sunny 77 25 59 15 54 54 WNW 17 28 29.89 1012 10 16 0.00 0.00
6:56 pm 18:56 Partly Cloudy 68 20.1 64 17.9 87 87 NW 5 7 29.87 1011 10 16 0.03 0.76
7:56 pm 19:56 Sunny 72 22 66 18.8 82 82 NW 6 9 29.87 1012 10 16 0.00 0.00
8:56 pm 20:56 Sunny 68 20 65 18.1 89 89 WNW 10 17 29.91 1013 10 16 0.00 0.00
9:56 pm 21:56 Clear 69 20.7 64 17.9 84 84 NW 8 13 29.92 1013 10 16 0.00 0.00
10:56 pm 22:56 Clear 69 20.5 62 16.9 80 80 NNW 5 7 29.92 1013 10 16 0.00 0.00
11:56 pm 23:56 Mostly Cloudy 68 19.9 62 16.5 81 81 NNW 6 9 29.94 1014 10 16 0.00 0.00

Powered by AerisWeather